Time,TemperatureF,DewpointF,PressureIn,WindDirection,WindDirectionDegrees,WindSpeedMPH,WindSpeedGustMPH,Humidity,HourlyPrecipIn,Conditions,Clouds,dailyrainin,SolarRadiationWatts/m^2,SoftwareType,DateUTC
2013-01-31 00:03:00,73.2,27.1,-100.00,SSW,196,6.0,9.0,18,0.00,,,0.00,0.0,meteohub,2013-01-31 05:03:00,
2013-01-31 00:07:00,73.2,27.1,-100.00,SSW,198,4.0,9.0,18,0.00,,,0.00,0.0,meteohub,2013-01-31 05:07:00,
2013-01-31 00:17:00,73.0,27.0,-100.00,SSW,203,4.0,9.0,18,0.00,,,0.00,0.0,meteohub,2013-01-31 05:17:00,
2013-01-31 00:22:00,73.0,27.0,-100.00,SSW,207,4.0,9.0,18,0.00,,,0.00,0.0,meteohub,2013-01-31 05:22:00,
2013-01-31 00:27:00,73.0,27.0,-100.00,SSW,207,4.0,9.0,18,0.00,,,0.00,0.0,meteohub,2013-01-31 05:27:00,
2013-01-31 00:32:00,72.9,27.0,-100.00,SSW,209,1.0,9.0,18,0.00,,,0.00,0.0,meteohub,2013-01-31 05:32:00,
2013-01-31 00:37:00,72.9,27.0,-100.00,SSW,207,3.0,9.0,18,0.00,,,0.00,0.0,meteohub,2013-01-31 05:37:00,
2013-01-31 00:47:00,72.7,28.0,-100.00,SSW,204,3.0,9.0,19,0.00,,,0.00,0.0,meteohub,2013-01-31 05:47:00,
2013-01-31 00:52:00,72.7,28.0,-100.00,SSW,209,4.0,9.0,19,0.00,,,0.00,0.0,meteohub,2013-01-31 05:52:00,
2013-01-31 00:57:00,72.5,27.9,-100.00,SSW,209,0.0,9.0,19,0.00,,,0.00,0.0,meteohub,2013-01-31 05:57:00,
2013-01-31 01:07:00,72.3,27.7,-100.00,SW,219,5.0,9.0,19,0.00,,,0.00,0.0,meteohub,2013-01-31 06:07:00,
2013-01-31 01:12:00,72.3,27.7,-100.00,SW,218,2.0,9.0,19,0.00,,,0.00,0.0,meteohub,2013-01-31 06:12:00,
2013-01-31 01:22:00,72.1,27.7,-100.00,SSW,207,1.0,5.0,19,0.00,,,0.00,0.0,meteohub,2013-01-31 06:22:00,
2013-01-31 01:27:00,72.1,27.7,-100.00,SSW,207,0.0,5.0,19,0.00,,,0.00,0.0,meteohub,2013-01-31 06:27:00,
2013-01-31 01:32:00,72.1,27.7,-100.00,SSW,207,4.0,5.0,19,0.00,,,0.00,0.0,meteohub,2013-01-31 06:32:00,
2013-01-31 01:37:00,72.0,27.5,-100.00,SW,215,2.0,5.0,19,0.00,,,0.00,0.0,meteohub,2013-01-31 06:37:00,
2013-01-31 01:47:00,72.0,27.5,-100.00,SSW,213,0.0,5.0,19,0.00,,,0.00,0.0,meteohub,2013-01-31 06:47:00,
2013-01-31 01:52:00,71.8,27.3,-100.00,SSW,213,1.0,5.0,19,0.00,,,0.00,0.0,meteohub,2013-01-31 06:52:00,
2013-01-31 01:57:00,71.8,27.3,-100.00,SSW,211,3.0,5.0,19,0.00,,,0.00,0.0,meteohub,2013-01-31 06:57:00,
2013-01-31 02:02:00,71.8,27.3,-100.00,SSW,207,5.0,7.0,19,0.00,,,0.00,0.0,meteohub,2013-01-31 07:02:00,
2013-01-31 02:07:00,71.6,27.1,-100.00,SSW,200,3.0,7.0,19,0.00,,,0.00,0.0,meteohub,2013-01-31 07:07:00,
2013-01-31 02:12:00,71.4,27.0,-100.00,SSW,203,3.0,7.0,19,0.00,,,0.00,0.0,meteohub,2013-01-31 07:12:00,
2013-01-31 02:17:00,71.4,27.0,-100.00,SSW,205,3.0,7.0,19,0.00,,,0.00,0.0,meteohub,2013-01-31 07:17:00,
2013-01-31 02:22:00,71.4,27.0,-100.00,SSW,197,3.0,7.0,19,0.00,,,0.00,0.0,meteohub,2013-01-31 07:22:00,
2013-01-31 02:32:00,71.6,27.1,-100.00,SSW,202,4.0,7.0,19,0.00,,,0.00,0.0,meteohub,2013-01-31 07:32:00,
2013-01-31 02:37:00,71.4,27.0,-100.00,SSW,200,3.0,10.0,19,0.00,,,0.00,0.0,meteohub,2013-01-31 07:37:00,
2013-01-31 02:42:00,71.6,27.1,-100.00,SSW,194,5.0,10.0,19,0.00,,,0.00,0.0,meteohub,2013-01-31 07:42:00,
2013-01-31 02:47:00,71.8,27.3,-100.00,SSW,207,6.0,10.0,19,0.00,,,0.00,0.0,meteohub,2013-01-31 07:47:00,
2013-01-31 02:52:00,72.0,27.5,-100.00,SSW,202,7.0,10.0,19,0.00,,,0.00,0.0,meteohub,2013-01-31 07:52:00,
2013-01-31 02:57:00,72.0,27.5,-100.00,SSW,209,12.0,12.0,19,0.00,,,0.00,0.0,meteohub,2013-01-31 07:57:00,
2013-01-31 03:02:00,72.0,27.5,-100.00,SSW,199,5.0,10.0,19,0.00,,,0.00,0.0,meteohub,2013-01-31 08:02:00,
2013-01-31 03:07:00,72.0,27.5,-100.00,SSW,205,5.0,10.0,19,0.00,,,0.00,0.0,meteohub,2013-01-31 08:07:00,
2013-01-31 03:12:00,72.0,27.5,-100.00,SSW,207,5.0,10.0,19,0.00,,,0.00,0.0,meteohub,2013-01-31 08:12:00,
2013-01-31 03:17:00,72.0,27.5,-100.00,SSW,205,4.0,12.0,19,0.00,,,0.00,0.0,meteohub,2013-01-31 08:17:00,
2013-01-31 03:22:00,72.0,27.5,-100.00,SSW,199,3.0,12.0,19,0.00,,,0.00,0.0,meteohub,2013-01-31 08:22:00,
2013-01-31 03:27:00,72.0,27.5,-100.00,SSW,196,2.0,12.0,19,0.00,,,0.00,0.0,meteohub,2013-01-31 08:27:00,
2013-01-31 03:32:00,72.0,27.5,-100.00,SSW,206,1.0,12.0,19,0.00,,,0.00,0.0,meteohub,2013-01-31 08:32:00,
2013-01-31 03:37:00,72.0,27.5,-100.00,SSW,209,0.0,12.0,19,0.00,,,0.00,0.0,meteohub,2013-01-31 08:37:00,
2013-01-31 03:42:00,72.0,27.5,-100.00,SSW,207,3.0,12.0,19,0.00,,,0.00,0.0,meteohub,2013-01-31 08:42:00,
2013-01-31 03:47:00,71.8,27.3,-100.00,SSW,211,4.0,12.0,19,0.00,,,0.00,0.0,meteohub,2013-01-31 08:47:00,
2013-01-31 03:52:00,71.6,27.1,-100.00,SSW,206,5.0,10.0,19,0.00,,,0.00,0.0,meteohub,2013-01-31 08:52:00,
2013-01-31 03:57:00,71.4,28.2,-100.00,South,179,3.0,10.0,20,0.00,,,0.00,0.0,meteohub,2013-01-31 08:57:00,
2013-01-31 04:02:00,71.4,28.2,-100.00,SSW,200,2.0,10.0,20,0.00,,,0.00,0.0,meteohub,2013-01-31 09:02:00,
2013-01-31 04:07:00,71.4,28.2,-100.00,South,191,5.0,10.0,20,0.00,,,0.00,0.0,meteohub,2013-01-31 09:07:00,
2013-01-31 04:12:00,71.4,28.2,-100.00,SSW,209,4.0,10.0,20,0.00,,,0.00,0.0,meteohub,2013-01-31 09:12:00,
2013-01-31 04:17:00,71.4,28.2,-100.00,SSW,205,4.0,10.0,20,0.00,,,0.00,0.0,meteohub,2013-01-31 09:17:00,
2013-01-31 04:27:00,71.4,28.2,-100.00,SSW,200,5.0,10.0,20,0.00,,,0.00,0.0,meteohub,2013-01-31 09:27:00,
2013-01-31 04:32:00,71.4,28.2,-100.00,SSW,209,1.0,10.0,20,0.00,,,0.00,0.0,meteohub,2013-01-31 09:32:00,
2013-01-31 04:37:00,71.6,28.4,-100.00,WSW,246,3.0,10.0,20,0.00,,,0.00,0.0,meteohub,2013-01-31 09:37:00,
2013-01-31 04:42:00,71.4,28.2,-100.00,SW,218,2.0,10.0,20,0.00,,,0.00,0.0,meteohub,2013-01-31 09:42:00,
2013-01-31 04:47:00,71.6,28.4,-100.00,SSW,210,0.0,10.0,20,0.00,,,0.00,0.0,meteohub,2013-01-31 09:47:00,
2013-01-31 04:52:00,71.4,28.2,-100.00,SSW,209,3.0,10.0,20,0.00,,,0.00,0.0,meteohub,2013-01-31 09:52:00,
2013-01-31 04:57:00,71.4,28.2,-100.00,SSW,202,6.0,10.0,20,0.00,,,0.00,0.0,meteohub,2013-01-31 09:57:00,
2013-01-31 05:02:00,71.4,28.2,-100.00,SSW,192,3.0,10.0,20,0.00,,,0.00,0.0,meteohub,2013-01-31 10:02:00,
2013-01-31 05:07:00,71.4,28.2,-100.00,SSW,201,4.0,7.0,20,0.00,,,0.00,0.0,meteohub,2013-01-31 10:07:00,
2013-01-31 05:12:00,71.4,28.2,-100.00,SSW,207,5.0,7.0,20,0.00,,,0.00,0.0,meteohub,2013-01-31 10:12:00,
2013-01-31 05:17:00,71.4,28.2,-100.00,SSW,209,5.0,7.0,20,0.00,,,0.00,0.0,meteohub,2013-01-31 10:17:00,
2013-01-31 05:22:00,71.4,28.2,-100.00,SSW,200,5.0,7.0,20,0.00,,,0.00,0.0,meteohub,2013-01-31 10:22:00,
2013-01-31 05:27:00,71.4,29.5,-100.00,SSW,211,4.0,7.0,21,0.00,,,0.00,0.0,meteohub,2013-01-31 10:27:00,
2013-01-31 05:32:00,71.4,29.5,-100.00,SSW,211,1.0,7.0,21,0.00,,,0.00,0.0,meteohub,2013-01-31 10:32:00,
2013-01-31 05:37:00,71.4,29.5,-100.00,SSW,209,3.0,7.0,21,0.00,,,0.00,0.0,meteohub,2013-01-31 10:37:00,
2013-01-31 05:42:00,71.4,29.5,-100.00,SSW,205,5.0,9.0,21,0.00,,,0.00,0.0,meteohub,2013-01-31 10:42:00,
2013-01-31 05:47:00,71.4,29.5,-100.00,SSW,202,4.0,9.0,21,0.00,,,0.00,0.0,meteohub,2013-01-31 10:47:00,
2013-01-31 05:52:00,71.4,29.5,-100.00,SW,214,3.0,9.0,21,0.00,,,0.00,0.0,meteohub,2013-01-31 10:52:00,
2013-01-31 05:57:00,71.6,29.7,-100.00,SSW,205,5.0,9.0,21,0.00,,,0.00,0.0,meteohub,2013-01-31 10:57:00,
2013-01-31 06:02:00,71.6,29.7,-100.00,SSW,209,2.0,9.0,21,0.00,,,0.00,0.0,meteohub,2013-01-31 11:02:00,
2013-01-31 06:07:00,71.6,29.7,-100.00,SSW,196,5.0,9.0,21,0.00,,,0.00,0.0,meteohub,2013-01-31 11:07:00,
2013-01-31 06:12:00,71.4,29.5,-100.00,SSW,199,4.0,9.0,21,0.00,,,0.00,0.0,meteohub,2013-01-31 11:12:00,
2013-01-31 06:17:00,71.6,29.7,-100.00,SSW,204,4.0,9.0,21,0.00,,,0.00,0.0,meteohub,2013-01-31 11:17:00,
2013-01-31 06:22:00,71.6,29.7,-100.00,SSW,202,5.0,10.0,21,0.00,,,0.00,0.0,meteohub,2013-01-31 11:22:00,
2013-01-31 06:27:00,71.6,29.7,-100.00,South,189,1.0,10.0,21,0.00,,,0.00,0.0,meteohub,2013-01-31 11:27:00,
2013-01-31 06:32:00,71.8,29.7,-100.00,SSW,207,1.0,10.0,21,0.00,,,0.00,0.0,meteohub,2013-01-31 11:32:00,
2013-01-31 06:37:00,71.8,29.7,-100.00,SSW,204,5.0,10.0,21,0.00,,,0.00,0.0,meteohub,2013-01-31 11:37:00,
2013-01-31 06:42:00,71.8,29.7,-100.00,SSW,207,3.0,10.0,21,0.00,,,0.00,0.0,meteohub,2013-01-31 11:42:00,
2013-01-31 06:47:00,71.8,29.7,-100.00,SSW,197,3.0,10.0,21,0.00,,,0.00,0.0,meteohub,2013-01-31 11:47:00,
2013-01-31 06:52:00,72.0,29.8,-100.00,SSW,202,4.0,10.0,21,0.00,,,0.00,0.0,meteohub,2013-01-31 11:52:00,
2013-01-31 06:57:00,72.0,29.8,-100.00,SSW,196,2.0,10.0,21,0.00,,,0.00,0.0,meteohub,2013-01-31 11:57:00,
2013-01-31 07:02:00,72.1,30.0,-100.00,SSW,207,6.0,10.0,21,0.00,,,0.00,0.0,meteohub,2013-01-31 12:02:00,
2013-01-31 07:07:00,72.1,30.0,-100.00,SSW,206,4.0,10.0,21,0.00,,,0.00,5.0,meteohub,2013-01-31 12:07:00,
2013-01-31 07:12:00,72.1,30.0,-100.00,SSW,202,5.0,11.0,21,0.00,,,0.00,9.0,meteohub,2013-01-31 12:12:00,
2013-01-31 07:22:00,72.3,30.2,-100.00,SSW,196,3.0,11.0,21,0.00,,,0.00,28.0,meteohub,2013-01-31 12:22:00,
2013-01-31 07:27:00,72.5,29.1,-100.00,WSW,240,4.0,11.0,20,0.00,,,0.00,30.0,meteohub,2013-01-31 12:27:00,
2013-01-31 07:32:00,72.7,29.3,-100.00,WNW,284,4.0,11.0,20,0.00,,,0.00,19.0,meteohub,2013-01-31 12:32:00,
2013-01-31 07:37:00,72.7,29.3,-100.00,SW,236,3.0,11.0,20,0.00,,,0.00,26.0,meteohub,2013-01-31 12:37:00,
2013-01-31 07:42:00,72.9,29.5,-100.00,West,280,7.0,11.0,20,0.00,,,0.00,9.0,meteohub,2013-01-31 12:42:00,
2013-01-31 07:47:00,72.3,28.9,-100.00,NW,304,9.0,11.0,20,0.00,,,0.00,9.0,meteohub,2013-01-31 12:47:00,
2013-01-31 07:52:00,70.3,27.3,-100.00,NNW,336,11.0,15.0,20,0.00,,,0.00,9.0,meteohub,2013-01-31 12:52:00,
2013-01-31 07:57:00,67.6,25.2,-100.00,NNW,342,17.0,17.0,20,0.00,,,0.00,12.0,meteohub,2013-01-31 12:57:00,
2013-01-31 08:02:00,66.0,25.0,-100.00,NNW,338,7.0,15.0,21,0.00,,,0.00,19.0,meteohub,2013-01-31 13:02:00,
2013-01-31 08:07:00,65.5,24.4,-100.00,NNW,330,11.0,15.0,21,0.00,,,0.00,46.0,meteohub,2013-01-31 13:07:00,
2013-01-31 08:12:00,64.9,24.1,-100.00,NNW,346,11.0,15.0,21,0.00,,,0.01,86.0,meteohub,2013-01-31 13:12:00,
2013-01-31 08:17:00,64.8,23.9,-100.00,North,349,9.0,15.0,21,0.00,,,0.01,86.0,meteohub,2013-01-31 13:17:00,
2013-01-31 08:22:00,64.6,23.7,-100.00,NNW,342,10.0,15.0,21,0.00,,,0.01,121.0,meteohub,2013-01-31 13:22:00,
2013-01-31 08:27:00,64.6,23.7,-100.00,NW,315,6.0,15.0,21,0.01,,,0.01,63.0,meteohub,2013-01-31 13:27:00,
2013-01-31 08:32:00,64.4,23.5,-100.00,NNW,331,9.0,18.0,21,0.01,,,0.01,51.0,meteohub,2013-01-31 13:32:00,
2013-01-31 08:37:00,64.2,24.6,-100.00,NNW,337,10.0,18.0,22,0.01,,,0.01,86.0,meteohub,2013-01-31 13:37:00,
2013-01-31 08:42:00,64.2,24.6,-100.00,NNW,336,6.0,18.0,22,0.01,,,0.01,60.0,meteohub,2013-01-31 13:42:00,
2013-01-31 08:47:00,64.4,23.5,-100.00,North,350,5.0,18.0,21,0.01,,,0.01,86.0,meteohub,2013-01-31 13:47:00,
2013-01-31 08:52:00,64.6,23.7,-100.00,NNW,340,6.0,18.0,21,0.01,,,0.01,58.0,meteohub,2013-01-31 13:52:00,
2013-01-31 08:57:00,64.6,23.7,-100.00,NNW,333,9.0,14.0,21,0.01,,,0.01,83.0,meteohub,2013-01-31 13:57:00,
2013-01-31 09:02:00,64.2,23.5,-100.00,NNW,348,9.0,14.0,21,0.01,,,0.01,114.0,meteohub,2013-01-31 14:02:00,
2013-01-31 09:07:00,64.2,24.6,-100.00,WNW,292,7.0,14.0,22,0.01,,,0.01,83.0,meteohub,2013-01-31 14:07:00,
2013-01-31 09:12:00,64.2,23.5,-100.00,North,355,10.0,14.0,21,0.01,,,0.01,234.0,meteohub,2013-01-31 14:12:00,
2013-01-31 09:17:00,64.6,23.7,-100.00,NNW,329,4.0,14.0,21,0.00,,,0.01,127.0,meteohub,2013-01-31 14:17:00,
2013-01-31 09:22:00,64.8,23.9,-100.00,NNW,344,6.0,13.0,21,0.00,,,0.01,218.0,meteohub,2013-01-31 14:22:00,
2013-01-31 09:27:00,64.8,23.9,-100.00,NNW,342,6.0,13.0,21,0.00,,,0.01,118.0,meteohub,2013-01-31 14:27:00,
2013-01-31 09:32:00,64.8,23.9,-100.00,North,350,6.0,13.0,21,0.00,,,0.01,144.0,meteohub,2013-01-31 14:32:00,
2013-01-31 09:37:00,64.8,23.9,-100.00,NNW,337,6.0,13.0,21,0.00,,,0.01,225.0,meteohub,2013-01-31 14:37:00,
2013-01-31 09:42:00,64.8,23.9,-100.00,NNW,340,5.0,13.0,21,0.00,,,0.01,98.0,meteohub,2013-01-31 14:42:00,
2013-01-31 09:47:00,64.6,23.7,-100.00,NW,325,6.0,13.0,21,0.00,,,0.01,77.0,meteohub,2013-01-31 14:47:00,
2013-01-31 09:52:00,64.2,23.5,-100.00,North,355,10.0,13.0,21,0.00,,,0.01,97.0,meteohub,2013-01-31 14:52:00,
2013-01-31 09:57:00,64.0,24.4,-100.00,North,350,7.0,13.0,22,0.00,,,0.01,118.0,meteohub,2013-01-31 14:57:00,
2013-01-31 10:07:00,64.0,24.4,-100.00,NW,322,7.0,13.0,22,0.00,,,0.01,105.0,meteohub,2013-01-31 15:07:00,
2013-01-31 10:12:00,64.0,24.4,-100.00,North,349,7.0,13.0,22,0.00,,,0.01,84.0,meteohub,2013-01-31 15:12:00,
2013-01-31 10:17:00,63.9,24.3,-100.00,NNW,338,9.0,15.0,22,0.00,,,0.01,102.0,meteohub,2013-01-31 15:17:00,
2013-01-31 10:22:00,63.9,24.3,-100.00,North,355,11.0,15.0,22,0.00,,,0.01,230.0,meteohub,2013-01-31 15:22:00,
2013-01-31 10:27:00,64.0,24.4,-100.00,NNW,344,10.0,15.0,22,0.00,,,0.01,267.0,meteohub,2013-01-31 15:27:00,
2013-01-31 10:32:00,64.2,24.6,-100.00,NNW,344,6.0,15.0,22,0.00,,,0.01,388.0,meteohub,2013-01-31 15:32:00,
2013-01-31 10:37:00,64.8,25.0,-100.00,NNW,331,5.0,15.0,22,0.00,,,0.01,431.0,meteohub,2013-01-31 15:37:00,
2013-01-31 10:42:00,65.3,25.5,-100.00,NNW,347,10.0,13.0,22,0.00,,,0.01,318.0,meteohub,2013-01-31 15:42:00,
2013-01-31 10:47:00,65.5,25.7,-100.00,North,351,5.0,13.0,22,0.00,,,0.01,316.0,meteohub,2013-01-31 15:47:00,
2013-01-31 10:52:00,65.8,25.9,-100.00,North,0,5.0,13.0,22,0.00,,,0.01,258.0,meteohub,2013-01-31 15:52:00,
2013-01-31 10:57:00,65.7,26.8,-100.00,North,355,6.0,13.0,23,0.00,,,0.01,214.0,meteohub,2013-01-31 15:57:00,
2013-01-31 11:02:00,65.3,27.5,-100.00,NNW,335,10.0,13.0,24,0.00,,,0.01,171.0,meteohub,2013-01-31 16:02:00,
2013-01-31 11:07:00,64.9,27.3,-100.00,North,355,8.0,13.0,24,0.00,,,0.01,156.0,meteohub,2013-01-31 16:07:00,
2013-01-31 11:12:00,64.6,27.0,-100.00,North,350,10.0,12.0,24,0.00,,,0.01,128.0,meteohub,2013-01-31 16:12:00,
2013-01-31 11:17:00,63.7,27.1,-100.00,North,9,7.0,12.0,25,0.00,,,0.01,276.0,meteohub,2013-01-31 16:17:00,
2013-01-31 11:22:00,63.7,27.1,-100.00,NNW,340,12.0,12.0,25,0.00,,,0.01,353.0,meteohub,2013-01-31 16:22:00,
2013-01-31 11:27:00,63.5,28.0,-100.00,North,0,7.0,12.0,26,0.00,,,0.01,297.0,meteohub,2013-01-31 16:27:00,
2013-01-31 11:32:00,63.0,30.2,-100.00,NNW,329,9.0,12.0,29,0.00,,,0.01,243.0,meteohub,2013-01-31 16:32:00,
2013-01-31 11:37:00,61.9,33.3,-100.00,NW,321,7.0,16.0,34,0.00,,,0.01,269.0,meteohub,2013-01-31 16:37:00,
2013-01-31 11:47:00,61.3,34.2,-100.00,NW,313,6.0,16.0,36,0.00,,,0.01,279.0,meteohub,2013-01-31 16:47:00,
2013-01-31 11:52:00,61.3,34.9,-100.00,NNW,344,4.0,16.0,37,0.00,,,0.01,308.0,meteohub,2013-01-31 16:52:00,
2013-01-31 11:57:00,62.1,36.1,-100.00,NW,323,5.0,16.0,38,0.00,,,0.01,330.0,meteohub,2013-01-31 16:57:00,
2013-01-31 12:02:00,62.8,40.5,-100.00,North,350,10.0,11.0,44,0.00,,,0.01,306.0,meteohub,2013-01-31 17:02:00,
2013-01-31 12:07:00,63.0,42.4,-100.00,NNW,346,5.0,11.0,47,0.00,,,0.01,297.0,meteohub,2013-01-31 17:07:00,
2013-01-31 12:12:00,63.3,43.9,-100.00,NNW,339,5.0,11.0,49,0.00,,,0.01,260.0,meteohub,2013-01-31 17:12:00,
2013-01-31 12:17:00,63.7,45.7,-100.00,North,350,6.0,11.0,52,0.00,,,0.01,332.0,meteohub,2013-01-31 17:17:00,
2013-01-31 12:22:00,64.0,46.6,-100.00,NNW,340,5.0,11.0,53,0.00,,,0.01,302.0,meteohub,2013-01-31 17:22:00,
2013-01-31 12:27:00,64.0,47.1,-100.00,NNW,340,11.0,11.0,54,0.00,,,0.01,287.0,meteohub,2013-01-31 17:27:00,
2013-01-31 12:32:00,64.0,47.5,-100.00,NW,317,9.0,11.0,55,0.00,,,0.01,302.0,meteohub,2013-01-31 17:32:00,
2013-01-31 12:37:00,64.2,47.7,-100.00,NNW,338,5.0,11.0,55,0.00,,,0.01,299.0,meteohub,2013-01-31 17:37:00,
2013-01-31 12:42:00,64.6,48.6,-100.00,NNW,329,6.0,14.0,56,0.00,,,0.01,246.0,meteohub,2013-01-31 17:42:00,
2013-01-31 12:47:00,64.8,48.7,-100.00,NNW,339,3.0,14.0,56,0.00,,,0.01,239.0,meteohub,2013-01-31 17:47:00,
2013-01-31 12:52:00,64.8,48.7,-100.00,NNW,342,4.0,14.0,56,0.00,,,0.01,127.0,meteohub,2013-01-31 17:52:00,
2013-01-31 12:57:00,64.6,48.6,-100.00,NW,326,7.0,14.0,56,0.00,,,0.01,142.0,meteohub,2013-01-31 17:57:00,
2013-01-31 13:02:00,64.2,47.7,-100.00,North,355,2.0,14.0,55,0.00,,,0.01,162.0,meteohub,2013-01-31 18:02:00,
2013-01-31 13:07:00,64.4,47.8,-100.00,North,351,9.0,14.0,55,0.00,,,0.01,162.0,meteohub,2013-01-31 18:07:00,
2013-01-31 13:12:00,64.2,48.2,-100.00,NNW,336,5.0,14.0,56,0.00,,,0.01,155.0,meteohub,2013-01-31 18:12:00,
2013-01-31 13:17:00,64.2,47.7,-100.00,North,355,6.0,11.0,55,0.00,,,0.01,163.0,meteohub,2013-01-31 18:17:00,
2013-01-31 13:22:00,64.4,46.9,-100.00,NW,317,8.0,11.0,53,0.00,,,0.01,181.0,meteohub,2013-01-31 18:22:00,
2013-01-31 13:27:00,63.5,42.3,-100.00,NW,325,6.0,11.0,46,0.00,,,0.01,181.0,meteohub,2013-01-31 18:27:00,
2013-01-31 13:32:00,62.1,38.1,-100.00,NNW,341,11.0,11.0,41,0.00,,,0.01,156.0,meteohub,2013-01-31 18:32:00,
2013-01-31 13:37:00,61.5,32.9,-100.00,North,355,5.0,-999.0,34,0.00,,,0.01,172.0,meteohub,2013-01-31 18:37:00,
2013-01-31 13:42:00,61.7,29.1,-100.00,NNW,327,4.0,12.0,29,0.00,,,0.01,181.0,meteohub,2013-01-31 18:42:00,
2013-01-31 13:52:00,62.1,27.7,-100.00,NNW,342,5.0,12.0,27,0.00,,,0.01,209.0,meteohub,2013-01-31 18:52:00,
2013-01-31 13:57:00,62.2,27.0,-100.00,North,355,4.0,12.0,26,0.00,,,0.01,267.0,meteohub,2013-01-31 18:57:00,
2013-01-31 14:02:00,62.8,27.3,-100.00,NNW,348,6.0,10.0,26,0.00,,,0.01,267.0,meteohub,2013-01-31 19:02:00,
2013-01-31 14:07:00,63.1,27.7,-100.00,NNW,333,7.0,10.0,26,0.00,,,0.01,271.0,meteohub,2013-01-31 19:07:00,
2013-01-31 14:12:00,63.3,27.9,-100.00,NNW,328,10.0,10.0,26,0.00,,,0.01,246.0,meteohub,2013-01-31 19:12:00,
2013-01-31 14:17:00,63.3,28.8,-100.00,NNW,342,6.0,10.0,27,0.00,,,0.01,220.0,meteohub,2013-01-31 19:17:00,
2013-01-31 14:22:00,63.5,29.8,-100.00,North,350,4.0,10.0,28,0.00,,,0.01,237.0,meteohub,2013-01-31 19:22:00,
2013-01-31 14:27:00,63.5,32.4,-100.00,North,350,4.0,10.0,31,0.00,,,0.01,301.0,meteohub,2013-01-31 19:27:00,
2013-01-31 14:32:00,63.7,33.3,-100.00,NNW,337,4.0,11.0,32,0.00,,,0.01,381.0,meteohub,2013-01-31 19:32:00,
2013-01-31 14:37:00,64.0,35.1,-100.00,NNW,342,4.0,11.0,34,0.00,,,0.01,367.0,meteohub,2013-01-31 19:37:00,
2013-01-31 14:42:00,64.2,38.7,-100.00,NNW,331,9.0,11.0,39,0.00,,,0.01,325.0,meteohub,2013-01-31 19:42:00,
2013-01-31 14:47:00,64.8,44.1,-100.00,NW,321,7.0,11.0,47,0.00,,,0.01,329.0,meteohub,2013-01-31 19:47:00,
2013-01-31 14:52:00,64.9,45.3,-100.00,North,350,10.0,11.0,49,0.00,,,0.01,283.0,meteohub,2013-01-31 19:52:00,
2013-01-31 14:57:00,65.1,46.6,-100.00,NNW,344,12.0,14.0,51,0.00,,,0.01,272.0,meteohub,2013-01-31 19:57:00,
2013-01-31 15:02:00,65.7,48.0,-100.00,North,351,10.0,14.0,53,0.00,,,0.01,250.0,meteohub,2013-01-31 20:02:00,
2013-01-31 15:07:00,65.8,49.6,-100.00,NW,325,10.0,14.0,56,0.00,,,0.01,214.0,meteohub,2013-01-31 20:07:00,
2013-01-31 15:12:00,65.7,49.5,-100.00,North,355,7.0,14.0,56,0.00,,,0.01,183.0,meteohub,2013-01-31 20:12:00,
2013-01-31 15:17:00,65.5,49.3,-100.00,NNW,342,4.0,14.0,56,0.00,,,0.01,192.0,meteohub,2013-01-31 20:17:00,
2013-01-31 15:22:00,65.5,49.3,-100.00,NNW,341,11.0,14.0,56,0.00,,,0.01,241.0,meteohub,2013-01-31 20:22:00,
2013-01-31 15:27:00,65.7,50.0,-100.00,NNW,333,7.0,14.0,57,0.00,,,0.01,265.0,meteohub,2013-01-31 20:27:00,
2013-01-31 15:32:00,65.8,49.6,-100.00,NNW,344,6.0,14.0,56,0.00,,,0.01,179.0,meteohub,2013-01-31 20:32:00,
2013-01-31 15:37:00,65.7,49.5,-100.00,NNW,335,5.0,14.0,56,0.00,,,0.01,151.0,meteohub,2013-01-31 20:37:00,
2013-01-31 15:42:00,65.8,49.6,-100.00,NNW,344,7.0,14.0,56,0.00,,,0.01,139.0,meteohub,2013-01-31 20:42:00,
2013-01-31 15:47:00,65.5,49.8,-100.00,NW,323,5.0,12.0,57,0.00,,,0.01,125.0,meteohub,2013-01-31 20:47:00,
2013-01-31 15:52:00,65.3,49.6,-100.00,North,0,6.0,12.0,57,0.00,,,0.01,123.0,meteohub,2013-01-31 20:52:00,
2013-01-31 15:57:00,65.3,49.6,-100.00,NW,323,5.0,12.0,57,0.00,,,0.01,114.0,meteohub,2013-01-31 20:57:00,
2013-01-31 16:02:00,65.5,49.8,-100.00,North,355,5.0,12.0,57,0.00,,,0.01,163.0,meteohub,2013-01-31 21:02:00,
2013-01-31 16:07:00,65.7,50.0,-100.00,North,355,3.0,12.0,57,0.00,,,0.01,141.0,meteohub,2013-01-31 21:07:00,
2013-01-31 16:12:00,65.8,50.2,-100.00,NNW,348,2.0,12.0,57,0.00,,,0.01,118.0,meteohub,2013-01-31 21:12:00,
2013-01-31 16:17:00,66.0,50.4,-100.00,NNW,341,2.0,9.0,57,0.00,,,0.01,114.0,meteohub,2013-01-31 21:17:00,
2013-01-31 16:22:00,66.2,50.9,-100.00,North,349,1.0,9.0,58,0.00,,,0.01,120.0,meteohub,2013-01-31 21:22:00,
2013-01-31 16:32:00,66.7,51.1,-100.00,North,355,4.0,9.0,57,0.00,,,0.01,121.0,meteohub,2013-01-31 21:32:00,
2013-01-31 16:37:00,66.9,51.3,-100.00,North,351,2.0,9.0,57,0.00,,,0.01,176.0,meteohub,2013-01-31 21:37:00,
2013-01-31 16:42:00,67.3,51.4,-100.00,North,355,4.0,6.0,57,0.00,,,0.01,172.0,meteohub,2013-01-31 21:42:00,
2013-01-31 16:47:00,67.6,51.8,-100.00,NE,34,3.0,6.0,57,0.00,,,0.01,102.0,meteohub,2013-01-31 21:47:00,
2013-01-31 16:52:00,67.6,51.8,-100.00,NNW,346,2.0,6.0,57,0.00,,,0.01,77.0,meteohub,2013-01-31 21:52:00,
2013-01-31 16:57:00,67.6,51.8,-100.00,NNW,346,3.0,6.0,57,0.00,,,0.01,79.0,meteohub,2013-01-31 21:57:00,
2013-01-31 17:02:00,67.6,51.8,-100.00,North,0,4.0,9.0,57,0.00,,,0.01,90.0,meteohub,2013-01-31 22:02:00,
2013-01-31 17:07:00,67.8,52.0,-100.00,North,11,2.0,9.0,57,0.00,,,0.01,86.0,meteohub,2013-01-31 22:07:00,
2013-01-31 17:12:00,67.8,52.0,-100.00,NNW,345,2.0,9.0,57,0.00,,,0.01,74.0,meteohub,2013-01-31 22:12:00,
2013-01-31 17:17:00,67.8,51.6,-100.00,NNW,348,5.0,9.0,56,0.00,,,0.01,54.0,meteohub,2013-01-31 22:17:00,
2013-01-31 17:22:00,67.8,51.6,-100.00,NNW,345,3.0,9.0,56,0.00,,,0.01,40.0,meteohub,2013-01-31 22:22:00,
2013-01-31 17:27:00,67.8,51.6,-100.00,NNW,344,3.0,9.0,56,0.00,,,0.01,33.0,meteohub,2013-01-31 22:27:00,
2013-01-31 17:32:00,67.8,51.6,-100.00,NNW,338,3.0,7.0,56,0.00,,,0.01,18.0,meteohub,2013-01-31 22:32:00,
2013-01-31 17:37:00,67.8,51.6,-100.00,NNW,340,2.0,7.0,56,0.00,,,0.01,19.0,meteohub,2013-01-31 22:37:00,
2013-01-31 17:42:00,67.8,51.1,-100.00,NNW,342,2.0,7.0,55,0.00,,,0.01,21.0,meteohub,2013-01-31 22:42:00,
2013-01-31 17:47:00,67.6,50.9,-100.00,NNW,343,2.0,7.0,55,0.00,,,0.01,11.0,meteohub,2013-01-31 22:47:00,
2013-01-31 17:52:00,67.5,50.2,-100.00,ENE,63,4.0,7.0,54,0.00,,,0.01,7.0,meteohub,2013-01-31 22:52:00,
2013-01-31 17:57:00,67.3,49.1,-100.00,WNW,290,1.0,5.0,52,0.00,,,0.01,5.0,meteohub,2013-01-31 22:57:00,
2013-01-31 18:02:00,66.9,47.7,-100.00,North,0,3.0,5.0,50,0.00,,,0.01,0.0,meteohub,2013-01-31 23:02:00,
2013-01-31 18:07:00,66.7,46.9,-100.00,NNW,346,0.0,5.0,49,0.00,,,0.01,0.0,meteohub,2013-01-31 23:07:00,
2013-01-31 18:12:00,66.6,45.7,-100.00,NNE,28,2.0,5.0,47,0.00,,,0.01,0.0,meteohub,2013-01-31 23:12:00,
2013-01-31 18:22:00,66.4,45.0,-100.00,North,9,3.0,5.0,46,0.00,,,0.01,0.0,meteohub,2013-01-31 23:22:00,
2013-01-31 18:27:00,66.4,45.0,-100.00,North,351,3.0,5.0,46,0.00,,,0.01,0.0,meteohub,2013-01-31 23:27:00,
2013-01-31 18:32:00,66.2,45.9,-100.00,NNW,337,3.0,5.0,48,0.00,,,0.01,0.0,meteohub,2013-01-31 23:32:00,
2013-01-31 18:42:00,65.8,46.2,-100.00,NNW,341,3.0,5.0,49,0.00,,,0.01,0.0,meteohub,2013-01-31 23:42:00,
2013-01-31 18:52:00,65.8,47.1,-100.00,North,0,3.0,5.0,51,0.00,,,0.01,0.0,meteohub,2013-01-31 23:52:00,
2013-01-31 18:57:00,65.7,47.5,-100.00,North,355,4.0,5.0,52,0.00,,,0.01,0.0,meteohub,2013-01-31 23:57:00,
2013-01-31 19:02:00,65.5,47.5,-100.00,NNW,340,4.0,6.0,52,0.00,,,0.01,0.0,meteohub,2013-02-01 00:02:00,
2013-01-31 19:07:00,65.5,47.5,-100.00,North,355,3.0,6.0,52,0.00,,,0.01,0.0,meteohub,2013-02-01 00:07:00,
2013-01-31 19:12:00,65.3,47.7,-100.00,North,355,5.0,6.0,53,0.00,,,0.01,0.0,meteohub,2013-02-01 00:12:00,
2013-01-31 19:17:00,65.1,47.5,-100.00,North,355,4.0,6.0,53,0.00,,,0.01,0.0,meteohub,2013-02-01 00:17:00,
2013-01-31 19:22:00,64.9,47.5,-100.00,NNW,342,4.0,6.0,53,0.00,,,0.00,0.0,meteohub,2013-02-01 00:22:00,
2013-01-31 19:27:00,64.9,47.5,-100.00,NNW,343,4.0,7.0,53,0.00,,,0.00,0.0,meteohub,2013-02-01 00:27:00,
2013-01-31 19:32:00,64.8,47.7,-100.00,North,355,3.0,7.0,54,0.00,,,0.00,0.0,meteohub,2013-02-01 00:32:00,
2013-01-31 19:37:00,64.6,47.5,-100.00,North,355,2.0,7.0,54,0.00,,,0.00,0.0,meteohub,2013-02-01 00:37:00,
2013-01-31 19:42:00,64.6,47.5,-100.00,North,355,1.0,7.0,54,0.00,,,0.00,0.0,meteohub,2013-02-01 00:42:00,
2013-01-31 19:47:00,64.4,47.5,-100.00,North,355,3.0,7.0,54,0.00,,,0.00,0.0,meteohub,2013-02-01 00:47:00,
2013-01-31 19:52:00,64.2,47.3,-100.00,North,355,2.0,7.0,54,0.00,,,0.00,0.0,meteohub,2013-02-01 00:52:00,
2013-01-31 19:57:00,64.2,47.3,-100.00,North,355,5.0,5.0,54,0.00,,,0.00,0.0,meteohub,2013-02-01 00:57:00,
2013-01-31 20:02:00,64.2,47.7,-100.00,NNW,347,5.0,5.0,55,0.00,,,0.00,0.0,meteohub,2013-02-01 01:02:00,
2013-01-31 20:07:00,64.0,47.1,-100.00,NNW,338,3.0,5.0,54,0.00,,,0.00,0.0,meteohub,2013-02-01 01:07:00,
2013-01-31 20:12:00,63.9,46.4,-100.00,NW,322,5.0,5.0,53,0.00,,,0.00,0.0,meteohub,2013-02-01 01:12:00,
2013-01-31 20:22:00,63.0,46.6,-100.00,North,0,6.0,7.0,55,0.00,,,0.00,0.0,meteohub,2013-02-01 01:22:00,
2013-01-31 20:27:00,62.4,46.9,-100.00,NNW,336,7.0,7.0,57,0.00,,,0.00,0.0,meteohub,2013-02-01 01:27:00,
2013-01-31 20:32:00,62.2,46.8,-100.00,North,355,9.0,12.0,57,0.00,,,0.00,0.0,meteohub,2013-02-01 01:32:00,
2013-01-31 20:37:00,62.1,46.6,-100.00,NNW,344,4.0,12.0,57,0.00,,,0.00,0.0,meteohub,2013-02-01 01:37:00,
2013-01-31 20:42:00,61.9,46.0,-100.00,NW,324,5.0,11.0,56,0.00,,,0.00,0.0,meteohub,2013-02-01 01:42:00,
2013-01-31 20:47:00,61.5,45.7,-100.00,NNW,346,6.0,11.0,56,0.00,,,0.00,0.0,meteohub,2013-02-01 01:47:00,
2013-01-31 20:52:00,61.5,45.7,-100.00,North,355,4.0,11.0,56,0.00,,,0.00,0.0,meteohub,2013-02-01 01:52:00,
2013-01-31 20:57:00,61.3,45.0,-100.00,North,9,9.0,11.0,55,0.00,,,0.00,0.0,meteohub,2013-02-01 01:57:00,
2013-01-31 21:02:00,61.2,44.8,-100.00,North,355,4.0,11.0,55,0.00,,,0.00,0.0,meteohub,2013-02-01 02:02:00,
2013-01-31 21:07:00,60.8,44.1,-100.00,NNW,341,5.0,11.0,54,0.00,,,0.00,0.0,meteohub,2013-02-01 02:07:00,
2013-01-31 21:12:00,60.6,43.0,-100.00,NNW,338,5.0,11.0,52,0.00,,,0.00,0.0,meteohub,2013-02-01 02:12:00,
2013-01-31 21:17:00,60.4,42.3,-100.00,NNW,340,6.0,11.0,51,0.00,,,0.00,0.0,meteohub,2013-02-01 02:17:00,
2013-01-31 21:22:00,60.3,41.5,-100.00,NNW,341,5.0,11.0,50,0.00,,,0.00,0.0,meteohub,2013-02-01 02:22:00,
2013-01-31 21:27:00,60.1,40.8,-100.00,NNW,341,9.0,11.0,49,0.00,,,0.00,0.0,meteohub,2013-02-01 02:27:00,
2013-01-31 21:32:00,59.9,40.1,-100.00,North,351,11.0,11.0,48,0.00,,,0.00,0.0,meteohub,2013-02-01 02:32:00,
2013-01-31 21:37:00,59.7,40.5,-100.00,NNW,336,5.0,12.0,49,0.00,,,0.00,0.0,meteohub,2013-02-01 02:37:00,
2013-01-31 21:42:00,59.7,40.5,-100.00,North,355,3.0,12.0,49,0.00,,,0.00,0.0,meteohub,2013-02-01 02:42:00,
2013-01-31 21:47:00,59.5,39.9,-100.00,North,355,4.0,12.0,48,0.00,,,0.00,0.0,meteohub,2013-02-01 02:47:00,
2013-01-31 21:52:00,59.5,39.9,-100.00,NNW,341,2.0,12.0,48,0.00,,,0.00,0.0,meteohub,2013-02-01 02:52:00,
2013-01-31 21:57:00,59.4,39.7,-100.00,NNW,337,7.0,13.0,48,0.00,,,0.00,0.0,meteohub,2013-02-01 02:57:00,
2013-01-31 22:02:00,59.0,39.9,-100.00,North,355,9.0,13.0,49,0.00,,,0.00,0.0,meteohub,2013-02-01 03:02:00,
2013-01-31 22:07:00,59.0,39.9,-100.00,North,349,7.0,8.0,49,0.00,,,0.00,0.0,meteohub,2013-02-01 03:07:00,
2013-01-31 22:12:00,59.0,39.9,-100.00,North,350,6.0,8.0,49,0.00,,,0.00,0.0,meteohub,2013-02-01 03:12:00,
2013-01-31 22:17:00,59.0,39.9,-100.00,North,355,4.0,9.0,49,0.00,,,0.00,0.0,meteohub,2013-02-01 03:17:00,
2013-01-31 22:22:00,58.8,40.3,-100.00,NNW,342,9.0,9.0,50,0.00,,,0.00,0.0,meteohub,2013-02-01 03:22:00,
2013-01-31 22:27:00,58.6,39.6,-100.00,NNE,13,7.0,11.0,49,0.00,,,0.00,0.0,meteohub,2013-02-01 03:27:00,
2013-01-31 22:32:00,58.5,39.4,-100.00,NNW,344,5.0,11.0,49,0.00,,,0.00,0.0,meteohub,2013-02-01 03:32:00,
2013-01-31 22:37:00,58.5,39.4,-100.00,North,5,6.0,13.0,49,0.00,,,0.00,0.0,meteohub,2013-02-01 03:37:00,
2013-01-31 22:42:00,58.3,39.2,-100.00,North,349,5.0,13.0,49,0.00,,,0.00,0.0,meteohub,2013-02-01 03:42:00,
2013-01-31 22:47:00,57.9,38.8,-100.00,NW,326,6.0,10.0,49,0.00,,,0.00,0.0,meteohub,2013-02-01 03:47:00,
2013-01-31 22:52:00,57.7,39.2,-100.00,NNW,342,5.0,10.0,50,0.00,,,0.00,0.0,meteohub,2013-02-01 03:52:00,
2013-01-31 22:57:00,57.7,39.7,-100.00,NNW,337,4.0,11.0,51,0.00,,,0.00,0.0,meteohub,2013-02-01 03:57:00,
2013-01-31 23:07:00,57.4,39.4,-100.00,NNW,333,3.0,11.0,51,0.00,,,0.00,0.0,meteohub,2013-02-01 04:07:00,
2013-01-31 23:12:00,57.2,39.2,-100.00,NNW,344,3.0,10.0,51,0.00,,,0.00,0.0,meteohub,2013-02-01 04:12:00,
2013-01-31 23:17:00,57.0,39.6,-100.00,NNW,344,3.0,10.0,52,0.00,,,0.00,0.0,meteohub,2013-02-01 04:17:00,
2013-01-31 23:22:00,56.8,39.4,-100.00,NNW,337,2.0,10.0,52,0.00,,,0.00,0.0,meteohub,2013-02-01 04:22:00,
2013-01-31 23:27:00,56.7,39.7,-100.00,NNW,333,3.0,10.0,53,0.00,,,0.00,0.0,meteohub,2013-02-01 04:27:00,
2013-01-31 23:32:00,56.5,40.1,-100.00,NNW,341,3.0,9.0,54,0.00,,,0.00,0.0,meteohub,2013-02-01 04:32:00,
2013-01-31 23:37:00,56.5,40.1,-100.00,NNW,340,6.0,9.0,54,0.00,,,0.00,0.0,meteohub,2013-02-01 04:37:00,
2013-01-31 23:42:00,56.3,39.4,-100.00,NW,326,7.0,11.0,53,0.00,,,0.00,0.0,meteohub,2013-02-01 04:42:00,
2013-01-31 23:47:00,56.3,39.9,-100.00,NNW,340,6.0,11.0,54,0.00,,,0.00,0.0,meteohub,2013-02-01 04:47:00,
2013-01-31 23:52:00,56.1,39.7,-100.00,North,355,5.0,11.0,54,0.00,,,0.00,0.0,meteohub,2013-02-01 04:52:00,
2013-01-31 23:57:00,56.1,39.2,-100.00,North,351,8.0,10.0,53,0.00,,,0.00,0.0,meteohub,2013-02-01 04:57:00,